Stations météo

réclame
Mon MeteoGroup
Lecce, Italie (16332): Température de l'air & dewpoint: 13.10.2017 09:00:00 - 19.10.2017 09:00:00 (CEST)Lecce, Italie (16332): Vitesse du vent: 13.10.2017 09:00:00 - 19.10.2017 09:00:00 (CEST)Lecce, Italie (16332): Direction du vent: 13.10.2017 09:00:00 - 19.10.2017 09:00:00 (CEST)Lecce, Italie (16332): reduced air pressure: 13.10.2017 09:00:00 - 19.10.2017 09:00:00 (CEST)Lecce, Italie (16332): visibility: 13.10.2017 09:00:00 - 19.10.2017 09:00:00 (CEST)
Date & Time tt [°C] td [°C] ff [km/h] ff [knt] dd ppp [hPa] vv [km]
19.10.2017 09:00:00 - - - - - - -
19.10.2017 08:00:00 13,2 12,7 4 2 - 1018,6 0,1
19.10.2017 07:00:00 13,0 13,0 5 3 ESE - 0,1
19.10.2017 06:00:00 13,0 13,0 4 2 ESE - 0,1
19.10.2017 05:00:00 13,2 12,7 4 2 SE 1018,5 0,3
19.10.2017 04:00:00 14,0 14,0 5 3 ESE - 0,1
19.10.2017 03:00:00 13,0 13,0 8 4 ESE - 0,1
19.10.2017 02:00:00 12,8 12,5 8 4 ESE 1018,7 0,3
19.10.2017 01:00:00 13,0 13,0 4 2 - - 0,7
19.10.2017 00:00:00 14,0 14,0 4 2 - - 0,7
18.10.2017 23:00:00 14,4 14,1 4 2 - 1018,7 4,0
18.10.2017 22:00:00 15,0 15,0 2 1 - - 7
18.10.2017 21:00:00 16,0 16,0 4 2 - - 10
18.10.2017 20:00:00 17,8 17,3 2 1 NW 1018,6 8
18.10.2017 19:00:00 19,0 18,0 2 1 - - 7
18.10.2017 18:00:00 22,0 20,0 5 3 E - 7
18.10.2017 17:00:00 24,6 21,1 13 7 ENE 1018,2 8
18.10.2017 16:00:00 25,0 17,0 4 2 - - 10
18.10.2017 15:00:00 24,0 16,0 4 2 - - 8
18.10.2017 14:00:00 22,8 19,8 4 2 - 1019,3 8
18.10.2017 13:00:00 21,0 20,0 5 3 NE - 6
18.10.2017 12:00:00 19,0 18,0 4 2 - - 5
18.10.2017 11:00:00 17,2 16,5 5 3 - 1020,5 3,2
18.10.2017 10:00:00 16,0 16,0 2 1 NW - -
18.10.2017 09:00:00 15,0 14,0 2 1 - - 0,1
18.10.2017 08:00:00 14,4 13,8 5 3 NNE 1020,7 0,1
18.10.2017 07:00:00 14,0 13,0 2 1 - - -
18.10.2017 06:00:00 13,0 12,0 2 1 - - -
18.10.2017 05:00:00 13,2 12,4 2 1 - 1021,4 0,1
18.10.2017 04:00:00 14,0 13,0 2 1 - - 0,1
18.10.2017 03:00:00 13,0 12,0 4 2 - - 0,3
18.10.2017 02:00:00 12,8 12,0 2 1 - 1022,1 1,0
18.10.2017 01:00:00 15,0 14,0 4 2 - - 1,5
18.10.2017 00:00:00 16,0 15,0 4 2 - - 3,0
17.10.2017 23:00:00 17,0 16,2 4 2 - 1022,6 4,0
17.10.2017 22:00:00 17,0 16,0 4 2 - - 4,0
17.10.2017 21:00:00 16,0 15,0 5 3 W - 5
17.10.2017 20:00:00 17,8 16,7 5 3 NE 1023,1 7
17.10.2017 19:00:00 19,0 18,0 5 3 NE - 8
17.10.2017 18:00:00 20,0 18,0 9 5 NNE - 10
17.10.2017 17:00:00 22,8 20,2 11 6 NNE 1023,3 10
17.10.2017 16:00:00 24,0 19,0 11 6 NNE - 10
17.10.2017 15:00:00 24,0 19,0 13 7 N - 10
17.10.2017 14:00:00 23,8 19,1 9 5 NNE 1024,4 10
17.10.2017 13:00:00 23,0 19,0 9 5 N - 8
17.10.2017 12:00:00 22,0 21,0 9 5 N - 8
17.10.2017 11:00:00 21,0 20,2 11 6 N 1025,9 5
17.10.2017 10:00:00 19,0 18,0 11 6 N - 3,5
17.10.2017 09:00:00 15,0 15,0 5 3 N - 1,5
17.10.2017 08:00:00 12,0 10,9 0 0 N 1025,3 0,9
17.10.2017 07:00:00 12,0 11,0 0 0 N - 0,5
17.10.2017 06:00:00 12,0 11,0 0 0 N - 0,1
17.10.2017 05:00:00 14,0 12,9 0 0 N 1025,5 1,1
17.10.2017 04:00:00 16,0 15,0 0 0 N - 1,1
17.10.2017 03:00:00 16,0 15,0 11 6 NNW - 2,0
17.10.2017 02:00:00 15,4 14,4 0 0 N 1026,7 0,1
17.10.2017 01:00:00 14,0 13,0 0 0 N - 0,1
17.10.2017 00:00:00 13,0 12,0 0 0 N - 0,1
16.10.2017 23:00:00 12,8 12,0 0 0 N 1026,7 0,1
16.10.2017 22:00:00 16,0 15,0 0 0 N - 0,5
16.10.2017 21:00:00 16,0 15,0 5 3 - - 2,0
16.10.2017 20:00:00 18,6 17,4 9 5 N 1026,5 2,5
16.10.2017 19:00:00 19,0 18,0 9 5 NNE - 3,0
16.10.2017 18:00:00 20,0 19,0 11 6 NNE - 5
16.10.2017 17:00:00 21,8 19,7 15 8 NNE 1026,1 6
16.10.2017 16:00:00 23,0 20,0 13 7 NNE - 8
16.10.2017 15:00:00 23,0 20,0 15 8 NNE - 8
16.10.2017 14:00:00 23,2 20,3 13 7 N 1026,4 6
16.10.2017 13:00:00 23,0 20,0 15 8 N - 6
16.10.2017 12:00:00 22,0 20,0 18 10 N - 6
16.10.2017 11:00:00 20,2 18,5 18 10 N 1027,1 5
16.10.2017 10:00:00 17,0 17,0 11 6 NNW - 3,0
16.10.2017 09:00:00 14,0 14,0 2 1 - - 1,6
16.10.2017 08:00:00 11,2 11,2 2 1 - 1026,3 0,1
16.10.2017 07:00:00 11,0 11,0 2 1 - - 0,1
16.10.2017 06:00:00 11,0 11,0 4 2 - - 0,1
16.10.2017 05:00:00 11,0 11,0 2 1 - 1026,0 0,1
16.10.2017 04:00:00 11,0 11,0 2 1 - - 0,1
16.10.2017 03:00:00 11,0 11,0 5 3 - - 0,1
16.10.2017 02:00:00 12,2 12,2 4 2 - 1026,6 0,3
16.10.2017 01:00:00 13,0 13,0 5 3 - - 1,1
16.10.2017 00:00:00 14,0 14,0 4 2 - - 1,5
15.10.2017 23:00:00 15,2 15,2 5 3 - 1026,7 1,5
15.10.2017 22:00:00 16,0 16,0 4 2 - - 4,0
15.10.2017 21:00:00 17,0 17,0 5 3 NNW - 7
15.10.2017 20:00:00 17,2 16,7 8 4 N 1026,0 10
15.10.2017 19:00:00 18,0 17,0 5 3 NNE - 10
15.10.2017 18:00:00 20,0 19,0 15 8 NNW - 10
15.10.2017 17:00:00 21,4 19,5 18 10 N 1025,5 10
15.10.2017 16:00:00 23,0 18,0 16 9 N - 10
15.10.2017 15:00:00 23,0 17,0 18 10 N - 10
15.10.2017 14:00:00 22,6 17,3 22 12 NNE 1025,9 10
15.10.2017 13:00:00 22,0 19,0 22 12 N - 10
15.10.2017 12:00:00 22,0 19,0 26 14 N - 10
15.10.2017 11:00:00 21,4 19,7 24 13 N 1026,4 10
15.10.2017 10:00:00 20,0 19,0 24 13 N - 7
15.10.2017 09:00:00 18,0 17,0 16 9 NNW - 6
15.10.2017 08:00:00 16,4 16,1 13 7 NNW 1025,7 4,0
15.10.2017 07:00:00 16,0 16,0 15 8 NNW - 4,0
15.10.2017 06:00:00 17,0 16,0 15 8 NNW - 8
15.10.2017 05:00:00 16,8 16,3 18 10 NNW 1025,2 8
15.10.2017 04:00:00 17,0 16,0 22 12 NNW - 8
15.10.2017 03:00:00 17,0 17,0 16 9 NNW - 10
15.10.2017 02:00:00 17,2 16,7 22 12 NNW 1024,9 10
15.10.2017 01:00:00 17,0 17,0 18 10 NNW - 10
15.10.2017 00:00:00 17,0 17,0 16 9 NNW - 10
14.10.2017 23:00:00 16,8 16,5 18 10 NNW 1024,8 10
14.10.2017 22:00:00 17,0 17,0 15 8 NNW - 10
14.10.2017 21:00:00 17,0 17,0 16 9 NNW - 10
14.10.2017 20:00:00 18,0 17,8 15 8 NNW 1025,0 10
14.10.2017 19:00:00 19,0 18,0 21 11 NNW - 10
14.10.2017 18:00:00 20,0 19,0 18 10 NNW - 10
14.10.2017 17:00:00 21,0 17,2 22 12 N 1024,3 10
14.10.2017 16:00:00 21,0 19,0 26 14 N - 10
14.10.2017 15:00:00 22,0 20,0 26 14 N - 10
14.10.2017 14:00:00 22,2 18,6 26 14 N 1024,5 10
14.10.2017 13:00:00 22,0 19,0 26 14 N - 10
14.10.2017 12:00:00 22,0 19,0 26 14 N - 10
14.10.2017 11:00:00 20,0 18,5 26 14 NNW 1024,7 10
14.10.2017 10:00:00 19,0 19,0 22 12 NNW - 10
14.10.2017 09:00:00 18,0 18,0 22 12 NNW - 7
14.10.2017 08:00:00 16,0 15,7 18 10 NNW 1024,2 5
14.10.2017 07:00:00 15,0 15,0 16 9 NNW - 5
14.10.2017 06:00:00 12,0 12,0 4 2 - - 6
14.10.2017 05:00:00 13,0 13,0 8 4 WNW 1024,2 3,0
14.10.2017 04:00:00 13,0 13,0 5 3 NW - 5
14.10.2017 03:00:00 14,0 14,0 4 2 - - 10
14.10.2017 02:00:00 14,2 14,2 9 5 WNW 1024,4 10
14.10.2017 01:00:00 15,0 15,0 8 4 NW - 10
14.10.2017 00:00:00 15,0 15,0 5 3 N - 10
13.10.2017 23:00:00 15,6 15,6 9 5 N 1024,2 10
13.10.2017 22:00:00 16,0 16,0 5 3 N - 10
13.10.2017 21:00:00 16,0 16,0 13 7 NNW - 10
13.10.2017 20:00:00 17,4 17,1 15 8 NNW 1023,7 10
13.10.2017 19:00:00 18,0 17,0 16 9 NNW - 10
13.10.2017 18:00:00 19,0 18,0 18 10 N - 10
13.10.2017 17:00:00 20,6 17,8 28 15 NNW 1023,4 10
13.10.2017 16:00:00 22,0 18,0 28 15 N - 10
13.10.2017 15:00:00 22,0 19,0 24 13 N - 10
13.10.2017 14:00:00 21,8 16,3 26 14 N 1023,7 10
13.10.2017 13:00:00 22,0 18,0 22 12 N - 10
13.10.2017 12:00:00 21,0 18,0 26 14 N - 10
13.10.2017 11:00:00 20,4 19,1 22 12 N 1024,9 10
13.10.2017 10:00:00 19,0 18,0 18 10 NNW - 8
13.10.2017 09:00:00 17,0 16,0 11 6 NNW - 5

tt = Température de l'air
td = dewpoint
ff = Vitesse du vent
dd = Direction du vent
ppp = reduced air pressure
vv = visibility

stations d'obs. à proximité